Retour au catalogue

LEMUR 2 ANDIS

ActifScienceSSO
NORAD 42838·PAYLOAD·🇺🇸 United States

Lancé Jul 14, 2017 depuis Baikonur Cosmodrome

Loading…

Prochains Passages (prochaines 24 heures)

TLE

FraisSource: Space-Track

Époque: Sep 14, 2026, 11:10 UTC

1 42838U 17042P   26257.46588209  .00018189  00000-0  48402-3 0  9991
2 42838  97.3701  78.4165 0008551  48.6059 311.5920 15.38232237502167

Suivez LEMUR 2 ANDIS en temps réel avec AllMySat

Download on the App Store